Regional Weather Roundup
Issued by NWS

Home | Current Version | Previous Version | Text Only | Print | Product List | Glossary Off
Versions: 1 2 3 4 5 6 7 8 9 10 11 12 13 14 15 16 17 18 19 20 21 22 23 24 25 26 27 28 29 30 31 32 33 34 35 36 37 38 39 40 41 42 43 44 45 46 47 48 49 50

000
ASUS43 KBIS 230631
RWRND
NORTH DAKOTA REGIONAL WEATHER ROUNDUP
NATIONAL WEATHER SERVICE EASTERN NORTH DAKOTA/GRAND FORKS ND
100 AM CDT FRI JUN 23 2017

  NOTE: "FAIR" INDICATES FEW OR NO CLOUDS BELOW 12,000 FEET WITH NO
  SIGNIFICANT WEATHER AND/OR OBSTRUCTIONS TO VISIBILITY.

NDZ001>003-009>011-017-230700-
...NORTHWEST NORTH DAKOTA...

CITY           SKY/WX    TMP DP  RH WIND       PRES   REMARKS
WILLISTON      CLOUDY    54  46  74 NW14      30.04S
6HR MIN TEMP:  54; 6HR MAX TEMP:  65; 6HR PCP: TRACE;

MINOT          CLOUDY    57  49  74 NW28G39   29.89R
MINOT AFB      CLOUDY    57  49  75 NW30G39   29.87R
6HR MIN TEMP:  57; 6HR MAX TEMP:  62;

$$

NDZ018>021-031>035-040>046-230700-
...SOUTHWEST NORTH DAKOTA...

CITY           SKY/WX    TMP DP  RH WIND       PRES   REMARKS
BISMARCK       CLOUDY    60  50  69 NW15G24   29.92R
DICKINSON      CLOUDY    53  46  77 NW22G32   30.01R
GARRISON         N/A     54  50  86 NW25G38   29.92R
HETTINGER      CLOUDY    54  44  69 W17       30.06R
$$

NDZ004>008-012>016-024-026-027-054-230700-
...NORTHEAST NORTH DAKOTA...

CITY           SKY/WX    TMP DP  RH WIND       PRES   REMARKS
GRAND FORKS    FAIR      59  49  69 W12       29.69S
GRAND FORKS AF FAIR      59  48  67 NW12G18   29.70S
DEVILS LAKE    MOCLDY    59  53  80 W18G28    29.75S
$$

NDZ022-023-025-028>030-036>039-047>053-230700-
...SOUTHEAST NORTH DAKOTA...

CITY           SKY/WX    TMP DP  RH WIND       PRES   REMARKS
JAMESTOWN      CLOUDY    60  47  61 W18       29.80S
FARGO          FAIR      62  44  51 NW15      29.75R
WAHPETON       FAIR      54  45  71 W10       29.77R
$$



USA.gov is the U.S. government's official web portal to all federal, state and local government web resources and services.